Temperature
29 30 30 30 30 30 30 30 30 31 31 31 30 30 28 27 27 26 26 25 24 24 23 23 23 23 23 23 22 22 21 21 21 21 21 20 20 20 19 19 19 19 18 18
28 29 29 29 29 29 29 30 30 30 30 30 29 28 27 26 26 25 25 24 24 23 23 22 22 22 23 22 22 22 22 21 21 21 21 20 20 20 19 19 19 19 18 18
27 28 28 28 29 29 29 30 30 30 30 29 28 27 26 25 25 25 24 23 23 23 22 22 22 23 23 23 22 22 22 21 21 20 20 20 20 20 19 19 19 18 18 18
27 27 26 28 29 29 29 29 29 29 29 28 27 26 24 24 24 23 23 23 23 22 22 22 22 22 23 22 22 22 21 21 20 20 20 20 19 19 19 19 18 18 18 18
26 26 27 27 27 28 28 27 28 28 28 27 26 25 24 23 22 22 22 22 22 22 22 22 22 22 22 21 21 21 21 20 20 20 20 20 19 19 19 18 18 18 18 17
25 25 26 27 27 26 27 26 27 27 27 26 26 27 26 22 21 21 21 21 21 21 21 21 21 21 21 21 21 20 20 20 20 19 19 19 19 19 18 18 18 18 17 17
24 25 26 26 25 26 26 26 25 25 25 25 25 25 23 21 21 20 20 20 21 21 21 20 21 21 21 20 20 20 20 19 19 19 19 19 18 18 18 18 18 17 17 17
24 24 25 24 25 25 24 23 23 23 23 23 23 22 21 20 20 20 20 20 20 20 20 20 20 20 20 20 20 19 19 19 19 19 18 18 18 18 17 17 17 17 16 16
24 24 22 22 22 22 21 22 22 22 22 22 21 21 20 20 19 19 19 19 19 19 19 19 19 19 19 19 19 19 19 19 19 18 18 17 17 17 17 17 17 16 16 16
22 22 21 21 21 20 20 20 21 21 21 21 21 20 20 19 19 19 19 19 19 19 19 19 19 19 19 19 19 19 18 18 18 17 17 17 17 17 17 16 16 16 16 16
20 21 20 20 20 20 20 20 20 19 20 20 20 19 19 19 18 18 18 18 18 18 18 18 18 18 18 18 18 18 18 18 17 17 17 16 16 16 16 16 16 16 15 15
21 20 20 19 18 18 19 19 19 19 19 19 19 19 18 18 18 18 18 18 18 17 17 17 18 18 18 17 17 17 17 17 17 16 16 16 16 16 16 15 15 15 15 15
18 18 18 18 18 18 18 18 18 18 18 18 18 18 18 17 17 17 17 17 17 17 17 17 17 17 17 17 16 16 16 16 16 16 16 16 15 15 15 15 15 15 15 14
16 16 17 17 17 17 17 17 17 17 17 17 17 17 17 17 17 16 16 16 16 16 16 16 16 16 16 16 15 15 15 15 15 15 15 15 15 15 15 15 15 14 14 14
15 16 16 16 16 16 17 17 17 17 17 17 16 16 16 16 16 15 15 15 15 15 15 15 15 15 15 15 15 15 15 15 15 14 14 14 14 15 14 14 14 14 14 13
15 15 16 16 16 16 16 16 17 17 16 16 16 16 15 15 15 15 14 14 14 14 14 14 14 14 14 14 14 14 14 14 14 14 14 14 14 14 14 14 14 14 13 13
15 15 15 15 15 16 16 16 16 16 16 15 15 15 15 15 14 14 14 14 14 13 13 13 13 13 13 13 13 14 14 14 13 13 13 13 13 13 13 13 13 13 13 13
14 15 15 15 15 15 15 15 15 15 15 15 14 14 14 14 14 14 13 13 13 13 13 13 13 13 13 13 13 13 13 13 13 13 13 13 13 13 13 13 13 13 13 12
14 14 14 14 14 14 14 14 14 14 14 14 14 13 13 13 13 13 13 13 12 12 12 12 12 12 12 12 12 12 12 12 12 12 12 12 12 12 12 12 12 12 12 12
13 13 13 13 13 13 14 14 13 13 13 13 13 13 13 13 12 12 12 12 12 12 12 12 12 12 11 12 12 12 12 12 12 12 11 12 12 12 12 12 12 12 11 11
13 13 13 13 13 13 13 13 13 13 13 13 13 12 12 12 12 12 12 12 11 11 11 11 11 11 11 11 11 11 11 11 11 11 11 11 11 11 11 11 11 11 11 11
12 12 12 12 12 12 12 12 12 12 12 12 12 12 12 11 11 11 11 11 11 11 11 11 11 11 11 11 11 11 11 11 11 11 11 11 11 11 11 10 11 11 10 10
12 12 12 12 12 12 12 12 12 12 12 12 11 11 11 11 11 11 11 11 11 11 11 11 11 11 11 10 10 10 10 10 10 10 10 10 10 10 10 10 10 10 10 10
11 11 11 11 11 11 11 11 11 11 11 11 11 11 11 11 11 11 11 11 10 11 10 10 10 10 10 10 10 10 10 10 10 10 10 10 10 9 9 9 9 9 9 9
11 11 11 11 11 11 11 11 11 10 11 11 10 10 11 10 10 10 10 10 10 10 10 10 10 10 10 9 9 9 9 9 9 9 9 9 9 9 9 9 9 9 9 9
10 11 11 11 10 10 10 10 10 10 10 10 10 10 10 10 10 10 10 10 10 10 9 9 9 9 9 9 9 9 9 9 9 9 8 8 8 8 8 8 8 8 8 8
10 10 10 10 10 10 10 10 10 10 10 10 10 10 10 10 10 9 9 9 9 9 9 9 9 9 9 9 8 8 8 8 8 8 8 8 8 8 8 8 7 8 8 8
Wind_Speed
14 10 11 14 15 16 17 16 14 12 12 7 4 5 5 5 6 6 7 8 8 8 8 8 8 8 9 9 9 9 9 9 9 8 7 7 6 6 6 6 6 6 6 6
14 13 13 14 15 16 16 15 14 13 11 5 3 3 4 5 6 6 6 6 6 7 7 7 7 8 8 8 8 9 9 8 7 7 7 7 7 6 6 6 5 5 6 6
15 14 14 18 17 16 15 14 13 14 9 5 5 4 5 5 5 6 6 6 5 5 5 6 6 6 7 7 7 8 8 7 7 7 7 6 6 6 6 6 5 5 6 6
11 12 18 11 8 12 13 12 12 10 8 6 4 3 4 4 5 5 4 4 4 4 4 4 4 5 6 6 7 7 7 7 7 7 6 6 6 5 5 5 6 6 6 6
11 16 16 9 8 10 12 11 9 9 8 5 4 5 5 3 4 4 4 4 3 3 3 3 4 4 5 6 7 7 6 6 6 6 6 6 6 6 6 6 6 6 6 6
11 15 17 9 7 7 9 11 7 8 8 6 6 8 5 4 5 5 4 3 3 3 3 3 3 4 5 5 5 5 5 5 5 6 6 6 6 6 6 5 6 6 5 6
15 15 11 3 4 8 11 6 3 5 7 7 6 3 3 6 6 5 4 4 3 3 3 3 3 4 4 4 4 4 4 4 5 5 6 6 6 5 5 5 5 6 6 6
13 15 11 2 6 7 2 1 1 3 4 5 5 5 6 6 5 5 4 4 3 3 3 2 3 3 4 3 2 3 3 3 4 4 4 4 5 5 5 5 6 6 6 6
6 5 1 1 2 1 1 1 2 3 4 5 6 7 6 6 5 5 4 3 2 3 3 3 2 2 2 1 1 2 3 3 3 4 4 4 5 5 5 5 6 6 6 6
4 4 2 1 2 2 2 2 2 2 3 5 6 6 6 6 5 4 3 3 2 2 2 2 2 2 1 0 1 2 3 3 3 4 5 5 4 5 5 5 6 6 6 6
6 4 3 3 2 1 1 1 1 2 3 5 6 6 6 5 4 3 2 2 1 1 1 1 1 1 1 1 1 2 3 3 3 4 4 4 4 4 6 5 5 5 5 5
5 4 4 2 0 0 1 1 1 1 2 3 4 4 4 3 3 2 1 1 1 1 1 0 0 0 0 1 1 2 3 3 3 3 4 5 5 4 3 4 4 4 4 5
3 2 2 1 0 0 1 1 0 1 3 3 3 3 3 2 2 2 2 2 2 1 1 1 1 1 1 1 1 2 3 3 3 3 4 5 5 5 5 4 4 5 5 5
2 2 2 2 0 1 0 0 0 1 3 3 3 2 2 2 2 3 2 2 2 1 1 1 1 1 2 2 2 3 4 3 4 4 4 4 5 5 5 6 5 4 5 7
4 4 3 2 2 1 0 1 1 2 2 2 2 2 2 2 3 2 2 2 2 1 1 1 1 2 2 2 2 3 3 3 3 3 4 4 5 5 5 6 5 4 4 5
4 4 4 3 2 2 2 2 3 2 2 2 2 2 2 2 1 1 2 2 2 2 2 1 2 2 3 3 3 3 3 3 3 3 4 5 5 5 5 5 5 5 5 3
4 4 4 3 3 4 4 4 3 3 3 3 2 2 2 2 2 2 2 2 2 2 3 3 3 2 3 3 4 3 3 3 4 4 4 5 5 5 5 5 5 4 4 2
5 5 4 4 4 4 5 4 3 2 2 1 1 2 2 2 2 2 2 2 2 2 3 3 2 3 3 3 3 3 4 3 4 4 4 4 4 4 4 4 4 4 3 2
5 5 4 5 4 4 4 4 2 1 1 1 1 1 1 1 2 2 2 2 3 3 3 2 2 3 3 3 3 4 4 4 4 4 4 3 4 4 4 3 4 4 3 2
4 4 3 3 3 3 3 3 2 2 1 1 1 1 1 1 2 2 2 2 3 3 2 2 3 3 3 3 4 3 4 4 4 3 4 4 4 3 3 3 3 3 2 2
2 2 2 2 2 2 2 2 2 1 1 1 1 1 1 2 2 2 2 2 2 2 2 1 2 2 2 2 5 3 3 3 3 3 3 3 3 3 3 3 3 3 3 3
1 1 1 0 1 0 1 1 2 1 1 1 0 1 1 2 2 2 2 2 2 1 1 1 1 2 2 4 3 2 2 2 2 3 3 3 3 3 3 3 3 3 3 3
0 1 1 1 2 2 2 2 1 1 1 0 1 1 2 2 2 2 2 1 1 1 1 1 2 2 3 3 2 2 2 2 2 2 2 2 3 3 3 3 3 3 3 3
2 2 1 2 3 3 2 2 2 1 1 1 0 1 1 1 1 1 1 1 1 1 1 2 2 2 3 2 2 2 2 2 2 2 2 2 2 2 2 3 3 3 3 4
1 1 1 2 2 2 2 2 2 2 2 2 2 2 1 1 1 1 1 1 2 2 2 3 2 1 1 2 3 3 2 3 3 3 2 2 2 2 2 3 3 3 3 3
1 1 2 2 2 2 2 2 2 2 2 3 3 3 3 3 2 2 2 2 3 2 2 2 2 1 2 3 3 3 3 3 2 2 2 2 2 2 3 3 4 3 3 3
2 2 2 3 3 2 2 3 3 3 3 3 3 3 3 3 3 3 3 3 3 3 3 3 3 3 3 3 4 4 3 3 3 3 3 3 2 2 2 2 3 3 3 2
Wind_Direction
239 236 226 223 223 220 229 239 248 249 248 245 230 214 202 189 179 177 170 169 170 169 167 167 170 176 181 182 182 186 189 191 190 190 190 189 191 195 196 197 198 201 207 209
228 228 228 229 226 224 228 235 242 250 249 247 230 213 195 188 181 178 174 171 167 168 167 169 175 178 176 179 180 182 188 191 186 185 187 188 190 193 193 198 203 200 207 210
226 218 225 229 222 221 224 228 235 242 246 234 218 206 199 196 190 182 176 174 170 168 174 178 178 176 176 178 178 181 186 187 183 183 184 186 190 188 192 197 200 203 211 212
228 213 229 231 218 223 224 229 236 245 245 232 222 202 185 191 190 182 175 172 172 178 183 183 179 177 175 174 176 181 184 185 184 183 181 181 181 184 195 200 201 205 211 213
226 225 229 215 206 214 219 227 231 234 230 218 194 184 174 174 178 173 167 159 164 181 180 168 160 164 163 173 174 175 180 185 186 186 184 182 186 189 196 201 207 213 213 213
227 233 234 220 190 210 222 227 224 223 217 206 194 219 201 159 161 158 151 148 154 154 139 133 138 143 152 162 166 174 179 182 184 193 193 194 195 196 201 203 210 218 212 214
227 233 234 185 193 196 219 222 189 203 204 204 202 230 150 146 151 147 138 132 131 123 116 115 131 143 153 163 175 179 175 178 183 195 199 201 199 199 204 206 207 218 213 213
224 232 228 154 192 211 227 81 202 197 195 187 170 145 130 133 140 143 142 139 137 125 114 111 127 147 156 168 177 167 169 179 187 197 212 205 202 202 203 208 212 217 215 220
228 229 112 174 210 222 289 269 259 217 191 173 166 154 145 138 136 138 139 132 131 123 111 102 105 131 158 158 169 173 172 182 202 210 214 213 208 207 210 213 224 226 223 223
223 211 212 219 219 246 257 265 261 227 198 180 171 161 153 147 143 141 136 128 114 112 112 105 101 116 122 123 197 197 194 193 206 219 219 211 214 216 220 222 228 232 232 231
219 212 208 208 234 250 263 247 189 181 187 183 175 167 160 154 150 143 130 123 115 111 106 109 86 84 133 183 216 221 218 219 223 232 228 218 220 232 230 232 232 233 238 237
227 206 223 218 260 281 151 152 156 158 162 169 175 175 168 164 161 159 157 158 170 191 193 148 86 323 291 236 220 232 233 233 238 243 237 224 219 231 239 237 207 217 245 258
246 267 266 240 255 351 157 165 155 171 169 164 163 169 180 185 186 195 203 210 212 216 223 244 246 294 322 312 265 252 259 253 250 247 245 231 224 231 237 229 213 209 212 220
230 253 234 211 238 344 325 153 100 148 155 157 159 164 175 196 214 215 221 229 236 248 242 247 270 306 316 296 275 274 274 270 261 254 253 248 240 239 239 239 228 228 216 201
238 243 245 246 246 266 270 199 182 168 159 164 170 181 193 210 221 230 236 237 240 251 246 272 297 307 303 286 271 273 279 280 282 283 274 263 255 249 246 246 243 238 226 194
244 233 220 220 239 265 274 256 236 226 204 200 211 216 212 203 216 240 244 239 244 259 261 261 270 281 284 280 271 266 263 263 263 266 265 262 256 253 250 246 243 241 241 229
229 225 219 232 254 270 277 279 266 251 239 232 229 221 206 208 225 243 255 255 265 279 272 263 267 276 277 269 265 265 256 237 223 247 253 254 254 256 255 252 250 247 247 221
246 252 250 251 260 271 280 288 278 257 244 240 220 214 226 235 249 266 278 271 266 287 285 269 273 280 275 269 265 261 257 252 246 248 254 257 262 261 258 254 255 259 251 199
257 258 261 261 262 264 270 278 274 262 239 203 201 220 246 266 270 269 270 269 265 274 292 303 293 272 279 284 274 250 248 249 254 256 258 257 257 258 259 261 263 263 262 240
257 255 252 255 255 254 260 253 233 225 213 182 188 208 255 277 283 280 280 281 287 302 300 306 296 293 283 277 271 254 246 244 248 253 256 256 258 258 259 265 270 273 269 258
254 249 239 234 242 253 244 221 206 203 186 176 194 235 271 290 294 291 286 292 312 313 299 266 272 297 299 294 267 260 253 249 248 250 253 259 264 266 266 265 266 266 264 262
256 233 220 186 182 172 158 174 170 170 157 154 220 265 275 278 286 288 292 303 313 323 288 295 321 10 330 292 276 275 270 267 267 269 270 270 269 270 270 265 259 260 263 264
97 116 117 120 121 102 92 115 136 141 148 216 266 280 281 292 289 281 296 327 330 353 317 343 15 358 302 280 284 282 281 276 280 287 285 278 277 274 265 261 265 272 276 274
74 84 105 120 114 102 94 88 80 75 67 34 357 331 301 281 286 319 350 54 54 30 353 54 50 336 297 312 329 322 302 298 298 294 297 292 284 282 277 270 267 270 277 278
63 86 114 117 112 104 101 97 92 89 78 69 66 62 48 18 359 16 17 46 77 85 60 76 86 354 15 22 14 6 -0 358 345 328 317 305 298 294 290 288 287 282 277 273
70 90 101 100 92 102 111 106 95 85 81 76 66 55 51 49 52 63 69 71 71 74 64 67 67 56 46 41 34 26 25 28 20 5 359 337 327 323 310 299 287 282 280 282
87 93 99 99 97 101 110 107 96 83 77 76 68 59 58 60 65 72 73 70 66 62 59 60 60 54 49 44 37 31 32 32 31 27 16 6 2 357 348 327 311 303 301 301
Height
1460 1459 1460 1465 1467 1468 1470 1469 1472 1470 1469 1467 1469 1473 1477 1480 1482 1484 1487 1489 1491 1493 1495 1497 1500 1502 1504 1507 1509 1511 1512 1514 1515 1516 1518 1519 1519 1520 1522 1522 1523 1524 1524 1525
1465 1461 1461 1464 1463 1465 1467 1466 1467 1467 1468 1466 1471 1474 1477 1480 1481 1483 1486 1488 1490 1492 1494 1495 1497 1499 1501 1503 1506 1507 1509 1511 1512 1514 1515 1516 1517 1518 1519 1519 1520 1521 1521 1522
1466 1462 1464 1468 1460 1462 1463 1462 1464 1467 1466 1468 1471 1474 1477 1479 1481 1483 1485 1487 1489 1490 1492 1493 1495 1496 1498 1500 1503 1504 1506 1508 1509 1511 1512 1513 1514 1515 1516 1516 1517 1518 1519 1519
1462 1468 1480 1458 1454 1456 1459 1461 1461 1462 1464 1467 1471 1475 1478 1479 1481 1482 1484 1486 1487 1489 1490 1492 1493 1495 1495 1498 1500 1502 1503 1505 1506 1507 1509 1510 1511 1512 1513 1514 1515 1515 1516 1516
1463 1466 1462 1458 1456 1457 1460 1462 1461 1463 1465 1467 1470 1473 1477 1478 1479 1482 1483 1484 1485 1487 1489 1490 1491 1492 1492 1495 1497 1498 1500 1501 1503 1504 1506 1507 1507 1508 1510 1510 1511 1512 1512 1512
1463 1466 1466 1454 1454 1457 1460 1463 1461 1463 1464 1467 1468 1469 1472 1477 1478 1480 1481 1482 1484 1486 1487 1488 1488 1490 1491 1493 1494 1495 1497 1498 1499 1501 1502 1503 1504 1504 1506 1506 1507 1508 1508 1509
1462 1461 1452 1453 1455 1457 1465 1462 1462 1463 1465 1466 1468 1469 1473 1476 1478 1479 1480 1481 1483 1484 1485 1486 1487 1488 1489 1490 1491 1492 1493 1495 1496 1498 1499 1500 1500 1501 1502 1502 1503 1504 1504 1505
1458 1461 1458 1455 1455 1457 1459 1462 1463 1464 1465 1467 1469 1472 1473 1475 1477 1478 1480 1481 1482 1483 1483 1484 1485 1486 1487 1488 1489 1490 1491 1492 1494 1495 1496 1497 1496 1496 1497 1498 1499 1499 1500 1501
1453 1456 1457 1458 1458 1460 1462 1463 1464 1464 1466 1467 1469 1471 1473 1475 1476 1478 1479 1480 1481 1481 1482 1483 1483 1484 1485 1486 1487 1487 1488 1489 1490 1491 1492 1493 1493 1493 1494 1494 1495 1496 1496 1497
1455 1456 1458 1459 1460 1461 1462 1463 1463 1464 1466 1467 1469 1470 1472 1474 1476 1477 1478 1479 1480 1480 1481 1481 1481 1482 1483 1484 1485 1485 1486 1486 1486 1488 1489 1489 1488 1490 1490 1490 1491 1492 1492 1492
1456 1458 1459 1460 1460 1461 1461 1462 1463 1464 1465 1466 1468 1470 1472 1473 1475 1476 1477 1478 1479 1479 1479 1480 1480 1480 1481 1481 1482 1483 1483 1483 1484 1484 1485 1485 1485 1485 1486 1486 1486 1486 1487 1488
1454 1457 1458 1460 1461 1461 1461 1462 1462 1463 1464 1466 1467 1469 1470 1472 1473 1474 1475 1476 1477 1477 1478 1478 1478 1478 1479 1479 1479 1480 1480 1480 1481 1481 1481 1481 1480 1480 1481 1481 1481 1481 1482 1482
1458 1458 1459 1460 1461 1461 1461 1461 1462 1463 1464 1465 1467 1468 1469 1470 1472 1473 1474 1475 1475 1475 1475 1476 1476 1476 1476 1476 1476 1476 1476 1477 1477 1477 1477 1476 1477 1477 1477 1477 1476 1476 1476 1477
1459 1459 1460 1460 1460 1460 1460 1461 1461 1462 1463 1464 1465 1467 1468 1469 1470 1471 1472 1472 1472 1472 1473 1473 1474 1474 1474 1474 1473 1473 1473 1473 1473 1472 1473 1472 1472 1473 1473 1473 1472 1471 1471 1472
1459 1459 1459 1459 1460 1460 1460 1460 1461 1461 1462 1463 1465 1466 1467 1468 1468 1469 1469 1469 1469 1469 1469 1470 1470 1471 1471 1471 1470 1470 1470 1469 1469 1469 1469 1469 1469 1469 1469 1469 1468 1468 1468 1467
1457 1458 1458 1458 1459 1459 1459 1459 1460 1460 1461 1462 1463 1464 1465 1465 1466 1466 1466 1466 1466 1466 1466 1467 1467 1467 1468 1467 1467 1466 1466 1465 1465 1465 1466 1466 1466 1465 1465 1465 1464 1464 1464 1464
1456 1456 1457 1457 1457 1458 1458 1458 1459 1459 1460 1461 1461 1462 1462 1463 1463 1463 1464 1464 1463 1463 1463 1463 1463 1464 1464 1463 1463 1463 1463 1463 1462 1463 1463 1463 1462 1462 1461 1461 1460 1460 1460 1460
1455 1455 1455 1456 1456 1456 1456 1457 1457 1458 1458 1458 1459 1459 1460 1460 1461 1461 1461 1461 1461 1460 1460 1460 1460 1460 1460 1459 1459 1459 1459 1459 1459 1459 1459 1459 1459 1458 1458 1457 1456 1456 1456 1456
1452 1453 1453 1454 1454 1455 1455 1455 1456 1456 1456 1456 1457 1457 1458 1458 1459 1459 1459 1459 1458 1458 1458 1458 1457 1456 1456 1456 1456 1456 1456 1456 1456 1455 1456 1456 1455 1455 1454 1454 1453 1453 1453 1452
1450 1450 1451 1452 1452 1453 1453 1453 1454 1454 1454 1455 1455 1456 1456 1457 1457 1457 1457 1457 1457 1456 1456 1455 1454 1454 1453 1453 1453 1453 1453 1453 1453 1452 1453 1453 1452 1452 1451 1451 1451 1450 1449 1449
1447 1448 1449 1449 1450 1450 1451 1451 1452 1453 1453 1453 1454 1454 1455 1455 1456 1456 1455 1455 1454 1454 1453 1452 1452 1451 1451 1450 1450 1450 1450 1450 1450 1449 1449 1449 1449 1449 1448 1448 1447 1447 1446 1446
1446 1446 1447 1447 1448 1448 1449 1450 1450 1451 1452 1452 1453 1453 1453 1454 1454 1454 1453 1453 1452 1451 1451 1451 1450 1449 1448 1448 1448 1448 1447 1447 1447 1447 1446 1446 1446 1445 1445 1445 1444 1444 1444 1443
1445 1445 1446 1447 1447 1447 1448 1449 1449 1450 1451 1451 1451 1451 1452 1452 1452 1452 1451 1451 1450 1449 1449 1449 1448 1447 1446 1446 1446 1445 1445 1444 1444 1444 1444 1444 1443 1443 1442 1442 1442 1441 1441 1441
1444 1445 1446 1446 1447 1447 1447 1448 1448 1449 1449 1450 1450 1450 1450 1451 1451 1450 1450 1449 1448 1448 1448 1447 1446 1445 1445 1444 1444 1444 1443 1443 1443 1443 1442 1442 1441 1440 1440 1440 1440 1439 1439 1438
1444 1444 1445 1446 1446 1447 1447 1447 1448 1448 1449 1449 1449 1449 1450 1450 1450 1449 1449 1448 1447 1447 1446 1446 1445 1444 1444 1444 1444 1443 1442 1442 1441 1441 1440 1440 1439 1439 1438 1438 1437 1437 1436 1435
1444 1444 1445 1446 1447 1447 1448 1448 1448 1448 1449 1449 1449 1449 1450 1449 1449 1448 1448 1448 1447 1447 1446 1446 1445 1445 1445 1444 1443 1442 1442 1441 1440 1439 1439 1438 1437 1437 1436 1435 1435 1434 1433 1432
1445 1445 1446 1446 1447 1448 1449 1449 1449 1450 1450 1450 1450 1450 1450 1450 1449 1449 1449 1448 1448 1448 1447 1447 1446 1445 1445 1444 1443 1442 1441 1440 1439 1438 1437 1436 1434 1434 1433 1432 1432 1432 1431 1430